Location: Bartshausen
(51.8454°N, 9.8167°E)
Time: 03:13:04
(UTC+00:00)

SJ 16-02 - Pass Details

Date: 08 November 2025
Orbit: 585 x 594 km, 75.0° (Epoch: 15 December)

Event Time Altitude Azimuth Distance (km) Brightness Sun altitude
Exits shadow 04:27:43 - 345° (NNW) 2,332 4.1 -18.6°
Reaches altitude 10° 04:28:46 10° 350° (N) 1,937 3.8 -18.5°
Maximum altitude 04:32:47 36° 58° (ENE) 942 2.7 -17.9°
Drops below altitude 10° 04:36:45 10° 126° (SE) 1,919 4.8 -17.3°
Sets 04:39:06 0° 135° (SE) 2,813 5.6 -16.9°
